Overview Statistics Trail Chart Weather Telemetry Raw packets
 

This is the latest recevied weather packets stored in our database for station/object K1BES. If no packets are shown the sender has not sent any weather packets the latest 10 day(s).

<< 12 13 14 15 16 17 18 >>
Time Temp. Humidity Pressure Rain* Wind** Luminosity Snow
1788561333 31.67° C 76% 1016 hPa 0 mm - 75 W/m² -
1788561029 31.67° C 76% 1015.8 hPa 0 mm - 84 W/m² -
1788560725 31.67° C 76% 1016.1 hPa 0 mm - 83 W/m² -
1788560420 31.11° C 77% 1016.1 hPa 0 mm - 84 W/m² -
1788560114 31.11° C 76% 1015.9 hPa 0 mm - 85 W/m² -
1788559809 31.67° C 76% 1016 hPa 0 mm - 94 W/m² -
1788559508 31.67° C 76% 1016 hPa 0 mm - 94 W/m² -
1788559204 31.67° C 74% 1016 hPa 0 mm - 83 W/m² -
1788558899 31.67° C 74% 1016 hPa 0 mm - 85 W/m² -
1788558594 31.11° C 75% 1016.1 hPa 0 mm - 88 W/m² -
1788558290 31.11° C 75% 1016.3 hPa 0 mm - 90 W/m² -
1788557985 31.11° C 75% 1016.2 hPa 0 mm - 91 W/m² -
1788557678 31.11° C 76% 1016.2 hPa 0 mm - 97 W/m² -
1788557375 31.11° C 76% 1016.2 hPa 0 mm - 97 W/m² -
1788557074 31.67° C 76% 1016 hPa 0 mm - 99 W/m² -
1788556769 31.67° C 74% 1016.1 hPa 0 mm - 102 W/m² -
1788556464 32.22° C 72% 1015.8 hPa 0 mm - 107 W/m² -
1788556160 32.22° C 73% 1015.9 hPa 0 mm - 112 W/m² -
1788555858 32.22° C 72% 1015.9 hPa 0 mm - 114 W/m² -
1788555554 32.22° C 73% 1016 hPa 0 mm - 121 W/m² -
1788555250 32.22° C 72% 1015.9 hPa 0 mm - 117 W/m² -
1788554947 32.78° C 72% 1015.8 hPa 0 mm - 106 W/m² -
1788554643 32.78° C 71% 1015.9 hPa 0 mm - 98 W/m² -
1788554339 32.78° C 72% 1015.9 hPa 0 mm - 89 W/m² -
1788554035 32.78° C 72% 1016.1 hPa 0 mm - 83 W/m² -

* Rain latest hour (hover to see other rain measurements)
** Current wind speed in m/s (hover to see current wind gust speed)